Regional Weather Roundup
Issued by NWS

Home | Current Version | Previous Version | Text Only | Print | Product List | Glossary On
Versions: 1 2 3 4 5 6 7 8 9 10 11 12 13 14 15 16 17 18 19 20 21 22 23 24 25 26 27 28 29 30 31 32 33 34 35 36 37 38 39 40 41 42 43 44 45 46 47 48 49 50
000
ASUS43 KOAX 260610
RWRNE

WEATHER ROUNDUP FOR NEBRASKA
NATIONAL WEATHER SERVICE OMAHA NE
100 AM CDT SAT MAY 26 2018

NOTES: SATELLITE DATA IS BEING USED TO AUGMENT CLOUD COVER ABOVE
       12000 FEET.
       "FAIR" INDICATES FEW OR NO CLOUDS BELOW 12,000 FEET WITH NO
       SIGNIFICANT WEATHER AND/OR OBSTRUCTIONS TO VISIBILITY.


NEZ001>004-019>022-054>056-260700-
NEBRASKA PANHANDLE

CITY           SKY/WX    TMP DP  RH WIND       PRES   REMARKS
SCOTTSBLUFF    CLEAR     63  55  75 E5        29.93S
6HR MIN TEMP:  63; 6HR MAX TEMP:  87;

ALLIANCE       CLEAR     56  53  90 S5        29.93R
6HR MIN TEMP:  55; 6HR MAX TEMP:  83;

CHADRON        CLEAR     58  56  93 SW3       29.89R
6HR MIN TEMP:  57; 6HR MAX TEMP:  85;

GORDON         FAIR      56  51  83 CALM      29.91S
6HR MIN TEMP:  55; 6HR MAX TEMP:  84;

KIMBALL        CLEAR     59  48  68 SE7       30.00S
SIDNEY         CLEAR     59  50  72 S5        29.97R
6HR MIN TEMP:  59; 6HR MAX TEMP:  86;

$$

NEZ057>060-069>072-079>082-260700-
SOUTHWEST NEBRASKA

CITY           SKY/WX    TMP DP  RH WIND       PRES   REMARKS
NORTH PLATTE   CLEAR     62  58  86 S5        29.87S
6HR MIN TEMP:  60; 6HR MAX TEMP:  86;

IMPERIAL       CLEAR     65  53  65 SE5       29.90S
6HR MIN TEMP:  65; 6HR MAX TEMP:  93;

LEXINGTON      CLEAR     64  59  82 NW3       29.84S
MCCOOK         CLEAR     67  56  67 SW6       29.86R
6HR MIN TEMP:  66; 6HR MAX TEMP:  89;

OGALLALA       CLEAR     60  54  79 SW5       29.91R
$$

NEZ005>010-023>029-035>040-094-260700-
NORTH CENTRAL NEBRASKA

CITY           SKY/WX    TMP DP  RH WIND       PRES   REMARKS
VALENTINE      CLEAR     64  59  83 SW5       29.86S
6HR MIN TEMP:  62; 6HR MAX TEMP:  87;

AINSWORTH      CLEAR     68  62  81 CALM      29.87S
BROKEN BOW     CLEAR     65  60  84 CALM      29.84S
6HR MIN TEMP:  65; 6HR MAX TEMP:  90;

O`NEILL        CLEAR     71  62  72 CALM      29.83R
ORD            CLEAR     64  61  90 NW3       29.81S
6HR MIN TEMP:  63; 6HR MAX TEMP:  91;

THEDFORD       CLEAR     64  59  84 CALM      29.89S
$$

NEZ041-046>049-061>064-073>077-083>087-260700-
SOUTH CENTRAL NEBRASKA

CITY           SKY/WX    TMP DP  RH WIND       PRES   REMARKS
GRAND ISLAND   CLEAR     74  61  63 W5        29.81R
6HR MIN TEMP:  74; 6HR MAX TEMP:  93;

AURORA         PTCLDY    69  61  74 W6        29.80S
HASTINGS       CLEAR     76  63  64 SW7       29.82S
6HR MIN TEMP:  76; 6HR MAX TEMP:  90;

HEBRON         PTCLDY    76  65  69 SW7       29.80R
HOLDREGE       CLEAR     71  58  65 S6        29.84S
KEARNEY        CLEAR     73  61  65 SW10      29.82S
YORK           CLEAR     70  64  83 SW3       29.80S
$$

NEZ011>018-030>034-042>045-260700-
NORTHEAST NEBRASKA

CITY           SKY/WX    TMP DP  RH WIND       PRES   REMARKS
NORFOLK        CLEAR     68  58  70 CALM      29.78S
6HR MIN TEMP:  64; 6HR MAX TEMP:  92;

ALBION         CLEAR     66  64  91 NW3       29.81R
BLAIR          CLEAR     74  63  70 W3        29.76S
COLUMBUS       CLEAR     68  61  78 CALM      29.79R
FREMONT        PTCLDY    71  62  72 CALM      29.77R
TEKAMAH        CLEAR     69  63  81 CALM      29.74S
6HR MIN TEMP:  69; 6HR MAX TEMP:  92;

WAYNE          CLEAR     65  61  86 CALM      29.78S
$$

NEZ050>053-065>068-078-088>093-260700-
SOUTHEAST NEBRASKA

CITY           SKY/WX    TMP DP  RH WIND       PRES   REMARKS
LINCOLN        CLEAR     76  56  49 SE3       29.77S
6HR MIN TEMP:  73; 6HR MAX TEMP:  95;

OMAHA EPPLEY   PTCLDY    70  66  87 CALM      29.74R
6HR MIN TEMP:  69; 6HR MAX TEMP:  89;

BEATRICE       CLEAR     76  66  70 S3        29.78S
FALLS CITY     CLEAR     77  65  66 SW10      29.77S
6HR MIN TEMP:  77; 6HR MAX TEMP:  91;

NEBRASKA CITY  PTCLDY    75  63  66 SW10      29.77S
PLATTSMOUTH    PTCLDY    78  62  58 W9        29.76S
$$

NEZ044-045-051>053-067-260700-
OMAHA AREA

CITY           SKY/WX    TMP DP  RH WIND       PRES   REMARKS
OMAHA EPPLEY   PTCLDY    70  66  87 CALM      29.74R
6HR MIN TEMP:  69; 6HR MAX TEMP:  89;

BLAIR          CLEAR     74  63  70 W3        29.76S
FREMONT        PTCLDY    71  62  72 CALM      29.77R
MILLARD        CLEAR     74  66  78 CALM      29.76R
OFFUTT AFB     CLOUDY    69  63  80 NW3       29.73S
PLATTSMOUTH    PTCLDY    78  62  58 W9        29.76S
WAHOO          FAIR      71  56  60 CALM      29.77S
$$



USA.gov is the U.S. government's official web portal to all federal, state and local government web resources and services.